Date,TemperatureHighF,TemperatureAvgF,TemperatureLowF,DewpointHighF,DewpointAvgF,DewpointLowF,HumidityHigh,HumidityAvg,HumidityLow,PressureMaxIn,PressureMinIn,WindSpeedMaxMPH,WindSpeedAvgMPH,GustSpeedMaxMPH,PrecipitationSumIn
2013-10-1,84.4,76.6,69.8,73.8,70.9,67.5,95,83,66,29.81,29.73,11,3,17,0.00
2013-10-2,87.4,77.4,71.6,75.0,72.2,65.8,97,85,51,29.85,29.78,7,2,9,0.00
2013-10-3,84.0,76.1,69.4,72.6,70.5,68.2,97,84,61,29.93,29.81,17,6,22,0.00
2013-10-4,83.5,76.1,72.3,75.3,72.3,70.0,95,88,66,30.00,29.85,12,4,17,0.00
2013-10-5,82.6,74.5,67.6,71.3,64.4,58.1,93,72,49,30.14,29.99,11,3,16,0.00
2013-10-6,81.0,69.3,64.2,61.6,58.5,53.3,85,70,39,30.14,30.09,11,4,15,0.00
2013-10-7,80.8,67.9,63.3,63.4,58.0,55.3,88,72,44,30.14,30.08,8,4,12,0.05
2013-10-8,79.3,69.1,60.8,61.1,58.0,53.6,84,69,44,30.15,30.10,8,2,11,0.01
2013-10-9,78.3,68.5,63.1,60.0,58.1,56.3,84,70,50,30.14,30.03,8,3,12,0.00
2013-10-10,77.2,68.3,61.7,65.4,60.5,56.9,89,77,60,30.05,29.84,10,3,12,0.00
2013-10-11,74.3,65.1,59.4,62.2,57.4,54.3,88,77,59,29.91,29.83,12,5,18,0.00
2013-10-12,79.0,68.2,61.9,64.6,60.6,57.0,89,78,53,30.04,29.91,8,3,12,0.00
2013-10-13,80.1,72.2,65.5,67.2,64.1,61.6,92,76,60,30.07,30.01,9,2,11,0.00
2013-10-14,81.0,70.8,63.9,69.8,63.8,60.9,95,79,63,30.08,30.02,8,2,11,0.00
2013-10-15,77.7,72.5,70.2,68.0,64.3,61.6,84,76,61,30.08,29.96,16,6,24,0.00
2013-10-16,83.7,75.7,70.9,72.7,67.7,60.1,91,77,60,30.04,29.98,10,2,15,0.00
2013-10-17,80.6,72.2,66.7,67.5,65.1,60.5,94,79,56,30.08,30.01,12,3,14,0.00
2013-10-18,82.4,71.5,65.5,68.2,64.5,56.6,97,81,44,30.01,29.91,11,3,14,0.00
2013-10-19,81.9,71.8,66.4,68.9,66.5,64.6,95,84,59,30.01,29.93,8,2,11,0.00
2013-10-20,79.3,73.3,66.0,68.6,66.9,64.2,98,81,68,29.93,29.74,8,2,11,0.06
2013-10-21,82.6,71.5,65.5,69.7,66.8,64.9,98,86,58,29.93,29.81,9,3,12,0.00
2013-10-22,79.9,71.4,66.6,70.9,67.7,65.3,97,88,67,29.81,29.70,10,3,14,0.01
2013-10-23,75.7,71.6,69.6,68.7,65.9,63.0,95,82,67,29.86,29.72,15,4,18,0.00
2013-10-24,79.9,71.5,64.2,69.0,64.8,59.1,97,81,53,29.89,29.82,9,2,11,0.00
2013-10-25,83.1,72.3,64.8,69.4,65.0,60.6,99,80,53,29.85,29.77,13,4,19,0.00
2013-10-26,81.9,73.9,68.7,71.1,68.5,66.0,95,84,63,29.91,29.77,11,5,16,0.00
2013-10-27,80.4,73.5,70.5,70.6,68.5,66.1,94,85,63,30.02,29.91,11,3,16,0.00
2013-10-28,78.6,71.8,68.0,68.5,67.0,66.0,96,85,69,29.99,29.76,8,3,11,0.00
2013-10-29,73.8,66.8,57.6,68.3,62.7,54.6,97,87,67,29.92,29.73,18,6,26,0.58
2013-10-30,65.5,61.2,56.5,54.7,47.3,41.5,83,61,44,29.99,29.85,17,5,30,0.01
2013-10-31,72.1,63.4,54.7,52.8,47.5,42.6,68,57,39,30.06,29.97,11,1,17,0.00